FW9687 Weather Reports


time (UTC)temp
C
wind
direction
speed
KPH
gust
KPH
rain 1hr
cm
rain 24hr
cm
rain mn
cm
humidity
%
barometer
mb
20260507130027 9 5 16.1 25.7 0.00 0.00 0.00 72 1020.9
20260507124525 8 5 20.9 27.4 0.00 0.00 0.00 72 1020.7
20260507123024 8 5 20.9 27.4 0.00 0.00 0.00 72 1020.4
20260507120037 9 5 24.1 32.2 0.00 0.00 0.00 71 1019.8
20260507114518 9 5 22.5 29.0 0.00 0.00 0.00 70 1019.7
20260507113035 9 5 20.9 27.4 0.00 0.00 0.00 70 1019.6
20260507110022 10 5 29.0 40.2 0.00 0.00 0.00 68 1019.3
20260507104518 10 5 29.0 40.2 0.00 0.00 0.00 67 1019.1
20260507103016 10 5 30.6 40.2 0.00 0.00 0.00 66 1018.9
20260507100007 10 5 30.6 40.2 0.00 0.00 0.00 65 1018.7
20260507094509 10 5 29.0 41.8 0.00 0.00 0.00 64 1018.5
20260507093002 11 5 29.0 40.2 0.00 0.00 0.00 64 1018.3
20260507090006 11 5 30.6 38.6 0.00 0.00 0.00 63 1018.0
20260507084502 11 5 30.6 43.5 0.00 0.00 0.00 62 1018.1
20260507083002 12 5 33.8 41.8 0.00 0.00 0.00 62 1017.9
20260507080001 12 5 27.4 38.6 0.00 0.00 0.00 61 1018.0
20260507074557 13 5 29.0 37.0 0.00 0.00 0.00 58 1017.7
20260507073128 15 5 16.1 20.9 0.00 0.00 0.00 50 1017.1
20260507070100 17 5 3.2 14.5 0.00 0.00 0.00 26 1017.0
20260507064610 16 5 8.0 27.4 0.00 0.00 0.00 32 1016.8
20260507063102 17 5 17.7 20.9 0.00 0.00 0.00 22 1016.1
20260507060033 18 5 6.4 12.9 0.00 0.00 0.00 20 1015.8
20260507054531 18 5 9.7 14.5 0.00 0.00 0.00 21 1015.6
20260507053034 19 5 16.1 22.5 0.00 0.00 0.00 18 1015.4
20260507050035 19 5 24.1 29.0 0.00 0.00 0.00 19 1015.1
20260507044546 19 5 22.5 25.7 0.00 0.00 0.00 19 1015.2
20260507043032 20 5 24.1 27.4 0.00 0.00 0.00 18 1015.1
20260507040034 19 5 22.5 25.7 0.00 0.00 0.00 19 1014.6
20260507034543 20 5 20.9 29.0 0.00 0.00 0.00 18 1014.4
20260507033042 20 5 22.5 29.0 0.00 0.00 0.00 19 1014.1
20260507030030 20 5 19.3 25.7 0.00 0.00 0.00 17 1013.6
20260507024532 20 5 19.3 25.7 0.00 0.00 0.00 19 1013.4
20260507023029 20 5 19.3 24.1 0.00 0.00 0.00 18 1013.1
20260507020031 21 5 17.7 20.9 0.00 0.00 0.00 16 1012.7
20260507014527 22 5 19.3 25.7 0.00 0.00 0.00 14 1012.6
20260507013026 23 5 19.3 30.6 0.00 0.00 0.00 14 1012.4
20260507010036 24 5 25.7 37.0 0.00 0.00 0.00 13 1011.9
20260507004529 24 5 25.7 38.6 0.00 0.00 0.00 12 1011.8
20260507003029 25 5 27.4 48.3 0.00 0.00 0.00 13 1011.6
20260507000028 25 5 24.1 49.9 0.00 0.00 0.00 12 1011.4
20260506234542 25 5 30.6 45.1 0.00 0.00 0.00 12 1011.2
20260506233023 25 5 27.4 41.8 0.00 0.00 0.00 12 1011.3
20260506230051 25 5 38.6 48.3 0.00 0.00 0.00 12 1011.1
20260506224605 25 5 27.4 56.3 0.00 0.00 0.00 12 1010.9
20260506224516 25 5 27.4 56.3 0.00 0.00 0.00 12 1010.9
20260506223117 25 5 24.1 35.4 0.00 0.00 0.00 15 1010.9
20260506221505 24 5 27.4 48.3 0.00 0.00 0.00 15 1011.1
20260506220008 25 5 33.8 41.8 0.00 0.00 0.00 16 1011.0
20260506214503 24 5 32.2 43.5 0.00 0.00 0.00 15 1011.2
20260506213059 24 5 30.6 45.1 0.00 0.00 0.00 15 1011.4
20260506211559 24 5 29.0 38.6 0.00 0.00 0.00 16 1011.5
20260506210058 24 5 32.2 45.1 0.00 0.00 0.00 16 1011.6
20260506204555 24 5 37.0 45.1 0.00 0.00 0.00 16 1011.9
20260506203102 24 5 30.6 48.3 0.00 0.00 0.00 16 1011.9
20260506201554 23 5 22.5 43.5 0.00 0.00 0.00 23 1012.2
20260506200053 23 5 29.0 51.5 0.00 0.00 0.00 22 1012.4
20260506194553 22 5 29.0 40.2 0.00 0.00 0.00 24 1012.4
20260506193058 22 5 20.9 38.6 0.00 0.00 0.00 24 1012.6
20260506191552 22 5 24.1 35.4 0.00 0.00 0.00 25 1012.8
20260506190049 22 5 35.4 49.9 0.00 0.00 0.00 24 1012.9
20260506184546 22 5 33.8 46.7 0.00 0.00 0.00 26 1013.3
20260506183059 21 5 22.5 51.5 0.00 0.00 0.00 26 1013.5
20260506181601 21 5 32.2 45.1 0.00 0.00 0.00 26 1013.7
20260506180050 21 5 19.3 38.6 0.00 0.00 0.00 27 1013.7
20260506174544 20 5 8.0 16.1 0.00 0.00 0.00 36 1014.0
20260506173043 20 5 9.7 20.9 0.00 0.00 0.00 38 1014.1
20260506171530 18 5 4.8 9.7 0.00 0.00 0.00 42 1014.1
20260506170026 18 5 6.4 16.1 0.00 0.00 0.00 43 1014.3
20260506164522 17 5 14.5 19.3 0.00 0.00 0.00 47 1014.2
20260506163025 17 5 8.0 20.9 0.00 0.00 0.00 48 1014.3
20260506161522 16 5 16.1 22.5 0.00 0.00 0.00 52 1014.2
20260506160033 16 5 19.3 27.4 0.00 0.00 0.00 53 1014.2
20260506154517 15 5 22.5 29.0 0.00 0.00 0.00 55 1014.0
20260506153020 15 5 19.3 27.4 0.00 0.00 0.00 56 1013.9
20260506151519 15 5 19.3 25.7 0.00 0.00 0.00 57 1013.7
20260506150017 15 5 19.3 25.7 0.00 0.00 0.00 57 1013.6
20260506144515 14 5 19.3 29.0 0.00 0.00 0.00 58 1013.7
20260506143009 13 5 20.9 25.7 0.00 0.00 0.00 59 1013.7
20260506141507 12 5 20.9 32.2 0.00 0.00 0.00 59 1013.7
20260506140004 13 5 22.5 32.2 0.00 0.00 0.00 54 1013.6
20260506134600 15 5 20.9 30.6 0.00 0.00 0.00 49 1013.5
20260506133004 15 5 12.9 19.3 0.00 0.00 0.00 49 1013.2
20260506131605 15 5 11.3 14.5 0.00 0.00 0.00 46 1012.8